Weather History for EGXG - October, 2012

Change the Weather History Date:

Monday, October 1, 2012

  Actual Average Record
Temperature  
Mean Temperature 54 °F -  
Max Temperature 60 °F - - ()
Min Temperature 48 °F - - ()
Degree Days  
Heating Degree Days 11    
Growing Degree Days 4 (Base 50)    
Moisture  
Dew Point 48 °F    
Average Humidity 78    
Maximum Humidity 94    
Minimum Humidity 57    
Precipitation  
Precipitation 0.02 in - - ()
Sea Level Pressure  
Sea Level Pressure 29.74 in    
Wind  
Wind Speed 8 mph ()    
Max Wind Speed 15 mph    
Max Gust Speed -    
Visibility 8.1 miles    
Events Rain    
T = Trace of Precipitation, MM = Missing Value Source: Averaged Metar Reports

Daily Weather History Graph

Daily Weather History Graph

Search for Another Location

Airport or City:

Trip Planner

Search our weather history database for the weather conditions in past years. The results will help you decide how hot, cold, wet, or windy it might be!

Date:

Astronomy

Oct. 01, 2012 Rise Set
Actual Time 7:07 AM BST 6:40 PM BST
Civil Twilight 6:32 AM BST 7:15 PM BST
Nautical Twilight 5:51 AM BST 7:56 PM BST
Astronomical Twilight 5:08 AM BST 8:38 PM BST
Moon 6:46 PM BST (10/1) 8:41 AM BST (10/1)
Length of Visible Light 12h 43m
Length of Day
11h 33m
Full, 98% of the Moon is Illuminated
Oct 1
Full
Oct 8
Last Quarter
Oct 15
New
Oct 22
First Quarter
Oct 29
Full

Hourly Weather History & Observations

Time (BST) Temp. Dew Point Humidity Pressure Visibility Wind Dir Wind Speed Gust Speed Precip Events Conditions
12:50 AM 54 °F 52 °F 89% 29.80 in 28 mi South 4.6 mph - -   Mostly Cloudy
12:50 AM 53.6 °F 51.8 °F 94% 29.77 in 6.2 mi South 4.6 mph - N/A   Mostly Cloudy
1:50 AM 53.6 °F 50.0 °F 88% 29.77 in 6.2 mi SW 11.5 mph - N/A   Mostly Cloudy
2:50 AM 53.6 °F 50.0 °F 88% 29.77 in 6.2 mi SSW 11.5 mph - N/A   Unknown
3:50 AM 52 °F 49 °F 85% 29.79 in 19 mi SSW 8.1 mph - -   Scattered Clouds
3:50 AM 51.8 °F 48.2 °F 88% 29.77 in 6.2 mi SSW 8.1 mph - N/A   Partly Cloudy
4:50 AM 51.8 °F 48.2 °F 88% 29.77 in 6.2 mi SSW 6.9 mph - N/A   Mostly Cloudy
5:50 AM 50.0 °F 48.2 °F 94% 29.77 in 6.2 mi SSW 4.6 mph - N/A   Mostly Cloudy
6:50 AM 51 °F 47 °F 83% 29.77 in 19 mi SSW 8.1 mph - -  
6:50 AM 51.8 °F 48.2 °F 88% 29.77 in 6.2 mi SSW 8.1 mph - N/A   Partly Cloudy
7:50 AM 51.8 °F 48.2 °F 88% 29.77 in 6.2 mi SW 8.1 mph - N/A   Partly Cloudy
8:50 AM 53.6 °F 50.0 °F 88% 29.77 in 6.2 mi SSW 5.8 mph - N/A   Scattered Clouds
9:50 AM 56 °F 50 °F 74% 29.79 in 18 mi SW 9.2 mph - -   Mostly Cloudy
9:50 AM 55.4 °F 50.0 °F 82% 29.77 in 6.2 mi SW 9.2 mph - N/A   Mostly Cloudy
11:50 AM 59.0 °F 48.2 °F 67% 29.74 in 6.2 mi SSW 11.5 mph - N/A   Mostly Cloudy
12:50 PM 56 °F 51 °F 80% 29.76 in 12 mi WSW 12.7 mph - - Rain Light Rain Showers
12:50 PM 55.4 °F 51.8 °F 88% 29.74 in 6.2 mi WSW 12.7 mph - N/A Rain Light Rain Showers
1:50 PM 57.2 °F 51.8 °F 82% 29.71 in 6.2 mi SSW 9.2 mph - N/A   Mostly Cloudy
2:50 PM 59.0 °F 48.2 °F 67% 29.71 in 6.2 mi SW 15.0 mph - N/A   Mostly Cloudy
3:50 PM 58 °F 48 °F 62% 29.71 in 16 mi SW 12.7 mph - - Rain Heavy Rain
3:50 PM 59.0 °F 48.2 °F 67% 29.71 in 6.2 mi SW 12.7 mph - N/A Rain Rain
4:50 PM 59.0 °F 50.0 °F 72% 29.68 in 6.2 mi SSW 9.2 mph - N/A   Mostly Cloudy
5:50 PM 59.0 °F 46.4 °F 63% 29.68 in 6.2 mi SW 15.0 mph - N/A   Mostly Cloudy
6:50 PM 56 °F 45 °F 57% 29.71 in 25 mi SW 9.2 mph - -   Scattered Clouds
6:50 PM 55.4 °F 44.6 °F 67% 29.68 in 6.2 mi SW 9.2 mph - N/A   Mostly Cloudy
7:50 PM 55.4 °F 46.4 °F 72% 29.68 in 6.2 mi SSW 10.4 mph - N/A   Unknown
8:50 PM 53.6 °F 42.8 °F 67% 29.71 in 6.2 mi SW 11.5 mph - N/A   Unknown
9:50 PM 54 °F 45 °F 62% 29.72 in 25 mi SSW 9.2 mph - -   Scattered Clouds
9:50 PM 53.6 °F 44.6 °F 72% 29.71 in 6.2 mi SSW 9.2 mph - N/A   Scattered Clouds
10:50 PM 53.6 °F 46.4 °F 77% 29.71 in 6.2 mi SW 15.0 mph - N/A   Mostly Cloudy
11:50 PM 53.6 °F 46.4 °F 77% 29.71 in 6.2 mi SW 11.5 mph - N/A   Mostly Cloudy